Location: *
(34.6780°N, 135.8310°E)
Time: 18:41:31
(UTC+00:00)

Cosmos 1674 - Pass Details

Date: 18 October 2019
Orbit: 496 x 518 km, 82.5° (Epoch: 17 November)

Event Time Altitude Azimuth Distance (km) Brightness Sun altitude
Rises 20:08:11 0° 181° (S) 2,569 6.3 -12.4°
Reaches altitude 10° 20:10:18 10° 179° (S) 1,689 5.4 -12.0°
Maximum altitude 20:13:58 71° 95° (E) 527 2.9 -11.2°
Drops below altitude 10° 20:17:40 10° 11° (N) 1,701 5.4 -10.5°
Sets 20:19:48 0° 9° (N) 2,589 6.3 -10.0°
